Погода в Павлополье

Украина / Днепропетровская область     47°52′35″N   34°02′37″E
темп.,
°C
ветер,
м/с
пор.,
м/с
влажн.,
%
обл.,
%
осадки,
мм/ч
давл.,
гПа
погр.,
м
13 апреля, вт
вт1300:00+10юв3683100 0.0 1021235
03:00+9ююв3589100 0.0 1021235
06:00+7юв339599 0.0 102153
09:00+10ююв347732 0.0 1021468
12:00+14ю446291 0.0 10211236
15:00+15ю3357100 0.1 10201476
18:00+13ююв3465100 0.1 1019352
21:00+11ю3580100 0.3 1020210
14 апреля, ср
ср1400:00+10юв3584100 0.1 1019200
03:00+9ююв358998 0.1 1018177
06:00+9ююв239164 0.0 101896
09:00+10ююв338181 0.0 1018471
12:00+13ююв346393 0.1 10171227
15:00+15ююв454733 0.1 10151744
18:00+15ююв56489 0.0 10141649
21:00+10юв51065100 0.0 1015280
15 апреля, чт
чт1500:00+9юв51078100 0.0 1014353
03:00+8юв4782100 0.0 1013304
06:00+8юв4690100 0.5 1013280
09:00+9юв4685100 0.5 1013354
12:00+10юв5786100 2.3 1013508
15:00+12ю886661 2.6 10121142
18:00+9ю5882100 0.1 1012660
21:00
16 апреля, пт
пт1600:00+7ююз578198 0.0 1013611
03:00+6ю5782100 0.1 1013607
06:00+6ююз5890100 0.1 1012804
09:00+6ююз698398 0.3 1013929
12:00+9ююз8116699 0.1 10131333
15:00+9юз8106596 0.1 10141271
18:00+7юз5876100 0.1 1015918
21:00+7ююв11738 0.0 101610
17 апреля, сб
сб1700:00+7ю4877100 0.0 1016801
03:00+6ю5786100 0.4 10161081
06:00+6ю3593100 0.5 1017364
09:00+7ююз3484100 0.5 1018506
12:00+7ю3685100 0.2 1019792
15:00+9юз3571100 0.3 1019814
18:00+9зюз237155 0.0 1020666
21:00+6зюз118597 0.0 102110